{"data":{"norad_id":67252,"intl_designator":"2025-313E","name":"ZORKIY-2M-VPE","alt_names":[],"object_type":"PAYLOAD","status":"ACTIVE","operator":null,"country":"CIS","launch_date":"2025-12-28","launch_site_code":"VOSTO","launch_vehicle":null,"mission":null,"orbit_class":"UNKNOWN","rcs_meters":null,"size_class":null,"mass_kg":null,"dimensions":null,"purposes":[],"wikipedia_slug":null,"has_3d_model":false,"image_url":null,"decayed_at":null,"tle_current":{"epoch":"2026-05-25T04:53:03.169824Z","epoch_age_seconds":51360,"freshness":"FRESH","line1":"1 67252U 25313E   26145.20350891  .00007149  00000+0  29845-3 0  9993","line2":"2 67252  97.3947 220.5092 0011459  71.1702 289.0777 15.23892951 22471","mean_motion":15.23892951,"eccentricity":0.0011459,"inclination_deg":97.3947,"raan_deg":220.5092,"arg_perigee_deg":71.1702,"mean_anomaly_deg":289.0777,"bstar":0.00029845,"rev_number":2247,"period_min":94.494826493885,"perigee_km":486.23679143604,"apogee_km":501.9866110095,"semimajor_km":6872.2487012228,"source":"CELESTRAK","updated_at":"2026-05-25T13:38:06.844817Z"}}}